Home   Weather   Dalian   Past weeks

Flag for China Past Weather in Dalian, Liaoning, China — Yesterday and Last 2 Weeks

Now
68 °F

Clear.


Feels Like: 68 °F
Forecast: 69 / 75 °F
Wind: 1 mph from Northeast

Location: Dalian Airport

Current Time: Sep 25, 2016 at 5:07:46 AM

Latest Report: Sep 25, 2016 at 4:30 AM


Visibility: 10 mi

Pressure: 29.95 "Hg

Humidity: 78%

Dew Point: 61 °F

Location of DalianLocation

Past Weather in Dalian — Graph

°F

Dalian Temperature Yesterday

Maximum temperature yesterday: 79 °F (at 12:30 PM)
Minimum temperature yesterday: 70 °F (at 4:30 AM)
Average temperature yesterday: 73 °F

High & Low Weather Summary for the Past Weeks

 TemperatureHumidityPressure
High84 °F (Sep 15, 11:00 AM)100% (Sep 10, 4:00 AM)30.18 "Hg (Sep 10, 4:00 AM)
Low54 °F (Sep 20, 5:30 AM)31% (Sep 19, 1:00 PM)29.80 "Hg (Sep 10, 4:00 AM)
Average71 °F73%30.00 "Hg
* Reported Sep 10 4:00 AM — Sep 25 4:00 AM, Dalian, Weather by CustomWeather, © 2016

Note: Actual official high and low records may vary slightly from our data, if they occured in-between our weather recording intervals... More about our weather records

Advertising

Dalian Weather History for the Previous 24 Hours

Scroll right to see more
 ConditionsComfort  
Time TempWeatherWind HumidityBarometerVisibility
4:00 AM
Sun, Sep 25
70 °FClear.1 mph73%29.95 "Hg10 mi
3:30 AM70 °FPassing clouds.3 mph73%29.92 "HgN/A
3:00 AM70 °FClear.6 mph78%29.92 "Hg10 mi
2:30 AM72 °FClear.3 mph69%29.92 "Hg10 mi
2:00 AM72 °FClear.1 mph69%29.92 "Hg10 mi
1:30 AM72 °FClear.1 mph69%29.92 "Hg10 mi
1:00 AM72 °FClear.8 mph69%29.92 "Hg10 mi
12:30 AM73 °FPassing clouds.10 mph69%29.92 "HgN/A
12:00 AM73 °FPassing clouds.8 mph65%29.92 "HgN/A
11:30 PM
Sat, Sep 24
73 °FPassing clouds.13 mph65%29.92 "HgN/A
11:00 PM73 °FPassing clouds.13 mph69%29.89 "HgN/A
10:30 PM73 °FPassing clouds.10 mph74%29.92 "HgN/A
10:00 PM73 °FPassing clouds.13 mph74%29.89 "HgN/A
9:30 PM73 °FPassing clouds.8 mph74%29.89 "HgN/A
9:00 PM73 °FPassing clouds.8 mph74%29.89 "HgN/A
8:30 PM73 °FPassing clouds.8 mph74%29.89 "HgN/A
8:00 PM73 °FPassing clouds.8 mph78%29.89 "HgN/A
7:30 PM73 °FPassing clouds.8 mph78%29.89 "HgN/A
7:00 PM73 °FClear.8 mph78%29.89 "Hg10 mi
6:30 PM73 °FClear.8 mph78%29.89 "Hg10 mi
6:00 PM73 °FPassing clouds.6 mph74%29.89 "HgN/A
5:30 PM73 °FPassing clouds.8 mph78%29.89 "HgN/A
5:00 PM73 °FPassing clouds.6 mph74%29.89 "HgN/A
4:30 PM75 °FPassing clouds.6 mph69%29.89 "HgN/A
4:00 PM75 °FPassing clouds.8 mph69%29.89 "HgN/A
3:30 PM75 °FSunny.8 mph69%29.89 "Hg10 mi
3:00 PM75 °FPassing clouds.10 mph69%29.89 "HgN/A
2:30 PM75 °FSunny.10 mph69%29.89 "Hg10 mi
2:00 PM77 °FPassing clouds.8 mph69%29.89 "HgN/A
1:30 PM77 °FSunny.13 mph69%29.89 "Hg10 mi
1:00 PM77 °FPassing clouds.8 mph65%29.92 "HgN/A
12:30 PM79 °FPassing clouds.8 mph61%29.92 "HgN/A
12:00 PM77 °FPassing clouds.10 mph65%29.92 "HgN/A
11:30 AM77 °FPassing clouds.8 mph65%29.92 "HgN/A
11:00 AM77 °FPassing clouds.10 mph65%29.92 "HgN/A
10:30 AM75 °FPassing clouds.13 mph69%29.92 "HgN/A
10:00 AM73 °FSunny.15 mph74%29.92 "Hg10 mi
9:30 AM75 °FPassing clouds.10 mph69%29.95 "HgN/A
9:00 AM73 °FPassing clouds.13 mph74%29.95 "HgN/A
8:30 AM73 °FPassing clouds.10 mph74%29.95 "HgN/A
8:00 AM73 °FSunny.3 mph74%29.92 "Hg10 mi
7:30 AM72 °FSunny.1 mph78%29.95 "Hg10 mi
7:00 AM72 °FSunny.6 mph78%29.95 "Hg10 mi
6:30 AM70 °FSunny.1 mph83%29.95 "Hg10 mi
6:00 AM70 °FSunny.3 mph78%29.95 "Hg10 mi
5:30 AM70 °FPassing clouds.10 mph83%29.92 "HgN/A
5:00 AM70 °FPassing clouds.10 mph78%29.92 "HgN/A
Weather by CustomWeather, © 2016

See weather overviewHow to use our weather pages